EW2219 Weather Reports


time (UTC)temp
F
wind
direction
speed
knots
gust
knots
rain 1hr
in
rain 24hr
in
rain mn
in
humidity
%
barometer
mb
20260505152415 65 241 9.6 13.0 0.00 0.00 0.00 75 1003.6
20260505150915 66 244 10.4 14.8 0.00 0.00 0.00 73 1003.0
20260505122415 57 259 4.3 5.2 0.00 0.00 0.00 100 1001.2
20260505120915 57 206 2.6 3.5 0.00 0.00 0.00 100 1000.9
20260505115416 56 235 4.3 7.0 0.00 0.00 0.00 100 1000.8
20260505113915 56 205 3.5 5.2 0.00 0.00 0.00 100 1000.9
20260505112415 56 200 1.7 3.5 0.00 0.00 0.00 100 1000.9
20260505110915 55 233 4.3 7.0 0.00 0.00 0.00 100 1000.7
20260505100915 55 221 7.0 11.3 0.00 0.00 0.00 100 999.8
20260505095415 55 225 5.2 7.8 0.00 0.00 0.00 100 999.6
20260505093915 55 214 7.0 10.4 0.00 0.00 0.00 100 999.5
20260505092415 55 228 5.2 8.7 0.00 0.00 0.00 100 999.5
20260505085415 55 185 5.2 7.8 0.00 0.00 0.00 100 999.1
20260505083915 55 215 5.2 8.7 0.00 0.00 0.00 100 999.4
20260505082415 55 239 1.7 2.6 0.00 0.00 0.00 100 999.6
20260505080915 55 247 4.3 8.7 0.00 0.00 0.00 100 999.6
20260505075415 53 217 5.2 9.6 0.00 0.00 0.00 100 999.6
20260505073915 54 224 2.6 5.2 0.00 0.00 0.00 100 999.7
20260505072415 55 206 2.6 4.3 0.00 0.00 0.00 100 999.8
20260505070915 56 207 0.0 2.6 0.00 0.00 0.00 100 999.8
20260505065415 57 226 5.2 7.8 0.00 0.00 0.00 100 1000.0
20260505063915 59 193 4.3 6.1 0.00 0.00 0.00 100 1000.2
20260505062415 59 208 5.2 9.6 0.00 0.00 0.00 100 1000.2
20260505060915 58 228 8.7 16.5 0.00 0.00 0.00 100 1000.3
20260505055415 57 222 7.8 13.0 0.00 0.00 0.00 100 1000.7
20260505053915 57 193 8.7 15.6 0.00 0.00 0.00 100 1000.7
20260505052415 58 220 6.1 9.6 0.00 0.00 0.00 100 1000.9
20260505050915 59 196 5.2 7.8 0.00 0.00 0.00 91 1001.0
20260505040915 59 216 10.4 17.4 0.00 0.00 0.00 86 1000.9
20260505035415 59 241 4.3 11.3 0.00 0.00 0.00 89 1000.9
20260505033915 58 221 8.7 11.3 0.00 0.00 0.00 91 1001.2
20260505032415 58 220 4.3 6.1 0.00 0.00 0.00 90 1000.9
20260505025415 57 226 4.3 7.0 0.00 0.00 0.00 87 1001.0
20260505023915 58 219 7.8 11.3 0.00 0.00 0.00 83 1001.1
20260505022415 59 228 4.3 6.1 0.00 0.00 0.00 79 1001.3
20260505020915 59 235 5.2 7.0 0.00 0.00 0.00 74 1001.4
20260505015415 60 241 10.4 16.5 0.00 0.00 0.00 68 1001.4
20260505013915 60 236 2.6 5.2 0.00 0.00 0.00 63 1001.2
20260505010915 60 229 2.6 4.3 0.00 0.00 0.00 63 1001.1
20260505005415 60 215 1.7 3.5 0.00 0.00 0.00 61 1001.1
20260505003915 61 193 4.3 0.9 0.00 0.00 0.00 58 1001.1
20260505002415 62 212 3.5 0.9 0.00 0.00 0.00 55 1001.0
20260505000915 63 212 6.1 8.7 0.00 0.00 0.00 54 1001.5
20260504235415 64 253 1.7 3.5 0.00 0.00 0.00 51 1001.6
20260504233915 65 214 3.5 5.2 0.00 0.00 0.00 49 1001.9
20260504230915 67 275 3.5 4.3 0.00 0.00 0.00 47 1002.0
20260504225415 68 209 6.1 11.3 0.00 0.00 0.00 44 1002.1
20260504223915 69 220 5.2 8.7 0.00 0.00 0.00 46 1002.3
20260504220915 69 222 10.4 18.2 0.00 0.00 0.00 50 1002.3
20260504215415 68 228 6.1 10.4 0.00 0.00 0.00 52 1002.3
20260504213915 69 233 8.7 19.1 0.00 0.00 0.00 53 1002.2
20260504210915 69 229 10.4 15.6 0.00 0.00 0.00 51 1001.9
20260504203915 69 211 10.4 20.0 0.00 0.00 0.00 52 1002.2
20260504195415 69 228 12.2 16.5 0.00 0.00 0.00 55 1002.5
20260504193915 68 205 12.2 20.0 0.00 0.00 0.00 52 1002.8
20260504192415 68 212 8.7 20.0 0.00 0.00 0.00 57 1003.1
20260504190915 67 256 8.7 13.9 0.00 0.00 0.00 55 1003.2
20260504185415 67 255 9.6 17.4 0.00 0.00 0.00 57 1003.3
20260504182415 66 209 8.7 15.6 0.00 0.00 0.00 61 1003.6
20260504180915 65 227 7.8 15.6 0.00 0.00 0.00 63 1003.8
20260504175415 65 210 12.2 20.0 0.00 0.00 0.00 62 1003.8
20260504173915 65 210 11.3 19.1 0.00 0.00 0.00 65 1004.2
20260504172415 64 214 10.4 15.6 0.00 0.00 0.00 64 1004.3
20260504170915 64 143 4.3 7.0 0.00 0.00 0.00 66 1004.4